Content
SEND FEEDBACK

Daily
Averages
Monthly
Summary
United States of America

CHICAGO, ILLINOIS


Home > North America > United States > Illinois
Elevation: 674 feet     Latitude: 41 59N     Longitude: 087 54W

WEATHER
 
SELECT A DAY
Number of Records: 197,880;   Date Range: 7/8/95 - 10/22/14
 
SHARE

PRINT THIS DATA

[ ← Previous Day ]
WEATHER ALMANAC - APRIL 5, 2013
[ Next Day → ]
[ °C ]   °F
Weather ElementAverageHighLow
Temperature39.2 °F43 °F (1:52 pm)36 °F (7:52 pm)
Dewpoint25.8 °F30.9 °F (3:52 am)21.9 °F (6:52 pm)
Humidity59.1 %73 % (3:52 am)47 % (1:52 pm)
Barometer30.20 in30.27 in (11:52 am)30.05 in (1:52 am)
Wind Speed8.7 mph13.8 mph (3:52 am)
Wind Gust20.7 mph (3:52 am)
Weather ElementAverage
Visibility10 mi
Wind DirectionENE (78.6 °)

Weather ElementTotal
Precipitation---
Heating Degree Days25.5 (Base 65)
Averaged from 22 records on April 5, 2013
WEATHER CONDITIONS BREAKOUT
WIND DIRECTION BREAKOUT
WEATHER BY HOUR - APRIL 5, 2013
[ °C ]   °F
Local TimeTemperatureDewpointHumidityBarometerVisibilityWind DirectionWind SpeedGust SpeedPrecipitationEventsConditions
1:52 AM42.1 °F28.9 °F60 %30.05 in10.0 miNNW (340°)6.9 mphClear
2:52 AM42.1 °F27.0 °F55 %30.06 in10.0 miNorth (360°)9.2 mph19.6 mphClear
3:52 AM39.0 °F30.9 °F73 %30.10 in9.0 miNNE (20°)13.8 mph20.7 mphClear
4:52 AM37.9 °F28.9 °F70 %30.13 in10.0 miNNE (30°)8.1 mphClear
5:52 AM37.0 °F28.9 °F73 %30.16 in10.0 miNNE (30°)8.1 mphClear
6:52 AM37.0 °F28.0 °F70 %30.19 in10.0 miNNE (30°)5.8 mphClear
7:52 AM39.0 °F28.0 °F65 %30.21 in10.0 miNE (40°)9.2 mphClear
8:52 AM39.9 °F25.0 °F55 %30.23 in10.0 miNE (50°)12.7 mphClear
9:52 AM42.1 °F25.0 °F51 %30.25 in10.0 miNE (40°)12.7 mph19.6 mphClear
11:52 AM42.1 °F25.0 °F51 %30.27 in10.0 miNNE (30°)10.4 mphClear
12:52 PM42.1 °F25.0 °F51 %30.26 in10.0 miENE (60°)9.2 mphClear
1:52 PM43.0 °F24.1 °F47 %30.24 in10.0 miNNE (30°)9.2 mphClear
2:52 PM42.1 °F25.0 °F51 %30.22 in10.0 miENE (60°)8.1 mphClear
3:52 PM42.1 °F25.0 °F51 %30.23 in10.0 miNNE (20°)10.4 mphClear
4:52 PM39.9 °F24.1 °F53 %30.23 in10.0 miENE (70°)6.9 mphClear
5:52 PM39.0 °F23.0 °F53 %30.23 in10.0 miENE (70°)6.9 mphClear
6:52 PM37.0 °F21.9 °F54 %30.23 in10.0 miENE (60°)8.1 mphPartly Cloudy
7:52 PM36.0 °F21.9 °F57 %30.22 in10.0 miENE (60°)9.2 mphMostly Cloudy
8:52 PM36.0 °F21.9 °F57 %30.22 in10.0 miENE (70°)5.8 mphOvercast
9:52 PM36.0 °F26.1 °F67 %30.21 in10.0 miEast (80°)6.9 mphOvercast
10:52 PM36.0 °F26.1 °F67 %30.19 in10.0 miEast (90°)6.9 mphOvercast
11:52 PM36.0 °F27.0 °F70 %30.19 in10.0 miEast (90°)5.8 mphOvercast
Hourly data recorded from KPWK, located miles away from Chicago, Illinois







STORIES FROM OUR PARTNERS